This is the latest recevied weather packets stored in our database for station/object DK0KTL-4. If no packets are shown the sender has not sent any weather packets the latest 10 day(s).
| Time | Temp. | Humidity | Pressure | Rain* | Wind** | Luminosity | Snow |
|---|---|---|---|---|---|---|---|
| 1777839215 | 18.33° C | 53% | 1010.4 hPa | 0 mm | - | - | - |
| 1777838914 | 18.89° C | 52% | 1010.5 hPa | 0 mm | - | - | - |
| 1777838614 | 18.89° C | 52% | 1010.5 hPa | 0 mm | - | - | - |
| 1777838314 | 18.89° C | 51% | 1010.5 hPa | 0 mm | - | - | - |
| 1777838014 | 18.89° C | 50% | 1010.4 hPa | 0 mm | - | - | - |
| 1777837413 | 19.44° C | 49% | 1010.3 hPa | 0 mm | - | - | - |
| 1777837113 | 19.44° C | 48% | 1010.3 hPa | 0 mm | - | - | - |
| 1777836512 | 20° C | 47% | 1010.3 hPa | 0 mm | - | - | - |
| 1777835611 | 20° C | 46% | 1010.3 hPa | 0 mm | - | - | - |
| 1777834711 | 20.56° C | 45% | 1010.3 hPa | 0 mm | - | - | - |
| 1777833810 | 21.11° C | 44% | 1010.2 hPa | 0 mm | - | - | - |
| 1777833509 | 21.11° C | 44% | 1010.1 hPa | 0 mm | - | - | - |
| 1777832609 | 21.67° C | 44% | 1010.1 hPa | 0 mm | - | - | - |
| 1777832308 | 21.67° C | 43% | 1009.8 hPa | 0 mm | - | - | - |
| 1777830807 | 22.78° C | 40% | 1009.9 hPa | 0 mm | - | - | - |
| 1777830506 | 23.33° C | 40% | 1010 hPa | 0 mm | - | - | - |
| 1777829906 | 23.33° C | 39% | 1009.9 hPa | 0 mm | - | - | - |
| 1777829305 | 23.33° C | 39% | 1009.7 hPa | 0 mm | - | - | - |
| 1777829005 | 23.89° C | 39% | 1009.8 hPa | 0 mm | - | - | - |
| 1777828705 | 23.89° C | 38% | 1009.8 hPa | 0 mm | - | - | - |
| 1777827804 | 24.44° C | 38% | 1009.8 hPa | 0 mm | - | - | - |
| 1777827504 | 24.44° C | 36% | 1009.8 hPa | 0 mm | - | - | - |
| 1777827203 | 24.44° C | 37% | 1009.8 hPa | 0 mm | - | - | - |
| 1777826903 | 25° C | 37% | 1009.7 hPa | 0 mm | - | - | - |
| 1777824200 | 25° C | 40% | 1009.7 hPa | 0 mm | - | - | - |
* Rain latest hour (hover to see other rain measurements)
** Current wind speed in m/s (hover to see current wind gust speed)